Voltar ao catálogo

KUIPER-00430

AtivoComunicaçõesLEO
NORAD 68935·PAYLOAD·🇺🇸 United States

Lançado Apr 30, 2026 de Guiana Space Centre

Loading…

Próximas Passagens (próximas 24 horas)

TLE

AtualizadoSource: CelesTrak SupGP

Época: Sep 15, 2026, 04:40 UTC

1 68935C 26098S   26258.19454861 -.00011952  00000+0 -15645-2 0  2587
2 68935  51.9043  22.5467 0000658 105.0933 125.9972 14.79942725    17

Acompanhe KUIPER-00430 em tempo real com AllMySat

Download on the App Store